Regional Weather Roundup
Issued by NWS

Home | Current Version | Previous Version | Graphics & Text | Print | Product List | Glossary On
Versions: 1 2 3 4 5 6 7 8 9 10 11 12 13 14 15 16 17 18 19 20 21 22 23 24 25 26 27 28 29 30 31 32 33 34 35 36 37 38 39 40 41 42 43 44 45 46 47 48 49 50
000
ASUS43 KBIS 092202
RWRND

NORTH DAKOTA REGIONAL WEATHER ROUNDUP
NATIONAL WEATHER SERVICE BISMARCK ND
400 PM CST FRI DEC 09 2016

NOTE: "FAIR" INDICATES FEW OR NO CLOUDS BELOW 12,000 FEET WITH NO
SIGNIFICANT WEATHER AND/OR OBSTRUCTIONS TO VISIBILITY.


NDZ001>003-009>011-017-092300-
NORTHWEST NORTH DAKOTA

CITY           SKY/WX    TMP DP  RH WIND       PRES   REMARKS
WILLISTON      PTCLDY    -3 -12  65 NE6       30.53F WCI -15
MINOT          CLEAR     -8 -14  74 W10       30.53F WCI -26
MINOT AFB      CLEAR    -12 -18  74 NW10      30.53F WCI -31
$$

NDZ018>021-031>035-040>046-092300-
SOUTHWEST NORTH DAKOTA

CITY           SKY/WX    TMP DP  RH WIND       PRES   REMARKS
BISMARCK       MOCLDY    -1  -7  75 W7        30.54F WCI -14
DICKINSON      CLEAR     -5 -10  79 W3        30.41
GARRISON         N/A     -6 -13  71 NW8       30.51S WCI -21
HETTINGER ARPT CLOUDY    -3  -8  79 N3        30.43S
$$

NDZ004>008-012>016-024-026-027-054-092300-
NORTHEAST NORTH DAKOTA

CITY           SKY/WX    TMP DP  RH WIND       PRES   REMARKS
GRAND FORKS    PTCLDY     0  -9  65 NW7       30.56F WCI -13
GRND FRKS AFB  CLEAR      0 -10  62 NW10      30.56S WCI -17
DEVILS LAKE    PTCLDY    -8 -13  78 W12       30.53R WCI -27
$$

NDZ022-023-025-028>030-036>039-047>053-092300-
SOUTHEAST NORTH DAKOTA

CITY           SKY/WX    TMP DP  RH WIND       PRES   REMARKS
FARGO          CLEAR      6  -3  66 NW10      30.55F WCI  -9
JAMESTOWN      CLEAR     -4 -10  75 NW14      30.52R WCI -24
$$





USA.gov is the U.S. government's official web portal to all federal, state and local government web resources and services.